Location: Владивосток
(43.1151°N, 131.8856°E)
Time: 23:37:18
(UTC+10:00)

BlueWalker 3 - Pass Details

Date: 05 December 2022
Orbit: 499 x 517 km, 53.2° (Epoch: 01 February)

Event Time Altitude Azimuth Distance (km) Brightness Sun altitude
Rises 18:51:45 0° 303° (WNW) 2,629 6.2 -13.1°
Reaches altitude 10° 18:54:24 10° 320° (NW) 1,737 4.9 -13.6°
Maximum altitude 18:57:23 20° 10° (N) 1,214 3.6 -14.1°
Enters shadow 18:58:29 18° 33° (NNE) 1,294 3.6 -14.3°
